EA2DUR Weather Reports


Display with metric or nautical units.
time (UTC)temp
F
wind
direction
speed
MPH
gust
MPH
rain 1hr
in
rain 24hr
in
rain mn
in
humidity
%
barometer
mb
20260507051508 42 74 0.0 3.0 0.00 0.00 0.00 98 946.8
20260507050022 42 111 2.0 3.0 0.00 0.00 0.00 98 946.8
20260507044506 42 97 1.0 2.0 0.00 0.00 0.00 98 946.9
20260507043005 42 298 0.0 2.0 0.00 0.00 0.00 98 947.0
20260507041504 42 258 0.0 3.0 0.00 0.00 0.00 99 947.0
20260507040006 42 167 0.0 2.0 0.00 0.00 0.00 98 946.9
20260507034501 42 131 2.0 5.0 0.00 0.00 0.00 98 947.2
20260507033001 41 117 1.0 3.0 0.00 0.00 0.00 98 947.4
20260507031609 41 54 0.0 2.0 0.00 0.00 0.00 98 947.0
20260507030101 41 68 1.0 2.0 0.00 0.00 0.00 97 947.1
20260507024558 42 41 1.0 3.0 0.00 0.00 0.00 98 947.1
20260507023106 43 55 1.0 3.0 0.00 0.00 0.00 98 947.1
20260507021557 42 85 1.0 3.0 0.00 0.00 0.00 98 947.4
20260507020057 42 94 1.0 3.0 0.00 0.00 0.00 98 947.4
20260507014603 42 117 1.0 2.0 0.00 0.00 0.00 98 947.5
20260507013054 42 150 1.0 2.0 0.00 0.00 0.00 98 947.5
20260507011553 41 122 0.0 3.0 0.00 0.00 0.00 98 947.6
20260507010051 41 109 1.0 3.0 0.00 0.00 0.00 97 947.7
20260507004551 42 28 0.0 3.0 0.00 0.00 0.00 97 947.7
20260507003051 42 65 1.0 3.0 0.00 0.00 0.00 97 947.9
20260507001546 42 92 1.0 3.0 0.00 0.00 0.00 97 948.0
20260507000045 42 103 1.0 2.0 0.00 0.00 0.00 97 948.0
20260506234544 42 62 0.0 3.0 0.00 0.00 0.00 97 948.1
20260506233046 43 15 2.0 4.0 0.00 0.00 0.00 97 948.1
20260506231542 43 93 0.0 1.0 0.00 0.00 0.00 97 948.2
20260506230038 43 69 0.0 2.0 0.00 0.00 0.00 97 948.2
20260506224538 44 96 1.0 3.0 0.00 0.00 0.00 96 948.2
20260506223036 45 343 3.0 5.0 0.00 0.00 0.00 97 948.3
20260506221534 44 36 3.0 5.0 0.00 0.00 0.00 96 948.3
20260506220033 45 71 1.0 4.0 0.00 0.00 0.00 96 948.4
20260506214532 45 27 2.0 4.0 0.00 0.00 0.00 96 948.5
20260506213031 45 360 2.0 4.0 0.00 0.00 0.00 96 948.5
20260506211533 45 360 2.0 5.0 0.00 0.00 0.00 95 948.5
20260506210031 45 79 1.0 3.0 0.00 0.00 0.00 95 948.6
20260506204528 45 66 1.0 2.0 0.00 0.00 0.00 94 948.5
20260506203027 46 99 1.0 2.0 0.00 0.00 0.00 93 948.5
20260506201527 46 5 0.0 3.0 0.00 0.00 0.00 93 948.4
20260506200026 47 360 1.0 3.0 0.00 0.00 0.00 92 948.2
20260506194526 48 116 1.0 2.0 0.00 0.00 0.00 91 948.0
20260506193025 49 69 0.0 2.0 0.00 0.00 0.00 90 948.0
20260506191525 50 55 1.0 4.0 0.00 0.00 0.00 89 947.8
20260506190024 50 26 4.0 6.0 0.00 0.00 0.00 88 947.8
20260506184524 51 5 1.0 8.0 0.00 0.00 0.00 88 947.7
20260506183023 51 61 3.0 9.0 0.00 0.00 0.00 87 947.6
20260506181523 52 75 5.0 10.0 0.00 0.00 0.00 85 947.4
20260506180023 52 24 2.0 7.0 0.00 0.00 0.00 87 947.4
20260506174521 52 335 7.0 11.0 0.00 0.00 0.00 86 947.3
20260506173022 52 360 4.0 10.0 0.00 0.00 0.00 87 947.5
20260506171522 51 18 4.0 12.0 0.00 0.00 0.00 87 947.6
20260506170022 50 49 7.0 11.0 0.00 0.00 0.00 88 947.7
20260506164520 50 9 7.0 11.0 0.00 0.00 0.00 89 948.0
20260506163038 51 26 7.0 14.0 0.00 0.00 0.00 88 947.9
20260506161520 52 41 6.0 10.0 0.00 0.00 0.00 87 947.8
20260506160022 52 316 6.0 11.0 0.00 0.00 0.00 86 947.9
20260506154518 53 22 6.0 10.0 0.00 0.00 0.00 88 948.0
20260506153017 51 18 9.0 13.0 0.00 0.00 0.00 89 947.9
20260506151517 51 56 8.0 12.0 0.00 0.00 0.00 90 948.1
20260506150016 50 37 4.0 11.0 0.00 0.00 0.00 91 948.1
20260506144515 51 333 4.0 9.0 0.00 0.00 0.00 91 948.3
20260506143016 50 55 4.0 11.0 0.00 0.00 0.00 91 948.4
20260506141515 50 16 9.0 14.0 0.00 0.00 0.00 91 948.5
20260506140014 51 340 8.0 17.0 0.00 0.00 0.00 88 948.5
20260506134513 53 347 7.0 13.0 0.00 0.00 0.00 82 948.4
20260506133012 54 63 3.0 6.0 0.00 0.00 0.00 79 948.3
20260506131514 54 290 2.0 7.0 0.00 0.00 0.00 81 948.2
20260506130010 52 25 1.0 5.0 0.00 0.00 0.00 88 948.3
20260506124509 51 13 2.0 6.0 0.00 0.00 0.00 88 948.4
20260506123010 51 11 3.0 9.0 0.00 0.00 0.00 87 948.4
20260506121508 52 9 4.0 10.0 0.00 0.00 0.00 84 948.3
20260506120007 53 360 3.0 10.0 0.00 0.00 0.00 81 948.2
20260506114509 53 338 4.0 9.0 0.00 0.00 0.00 80 948.1
20260506113007 54 292 5.0 9.0 0.00 0.00 0.00 80 948.1
20260506111507 54 346 5.0 7.0 0.00 0.00 0.00 80 948.3
20260506110003 53 333 4.0 9.0 0.00 0.00 0.00 83 948.3
20260506104603 52 13 4.0 8.0 0.00 0.00 0.00 83 948.3
20260506103059 52 351 3.0 8.0 0.00 0.00 0.00 82 948.3
20260506101605 52 46 2.0 5.0 0.00 0.00 0.00 81 948.3
20260506100057 52 312 1.0 5.0 0.00 0.00 0.00 79 948.3
20260506094621 52 298 2.0 6.0 0.00 0.00 0.00 83 948.2
20260506093054 51 17 1.0 3.0 0.00 0.00 0.00 85 948.3
20260506091550 50 132 3.0 5.0 0.00 0.00 0.00 86 948.1
20260506090049 51 111 1.0 5.0 0.00 0.00 0.00 86 948.2
20260506084548 50 104 2.0 7.0 0.00 0.00 0.00 89 948.1
20260506083042 49 102 3.0 7.0 0.00 0.00 0.00 93 948.1
20260506081539 47 115 2.0 4.0 0.00 0.00 0.00 94 948.2
20260506073041 46 138 5.0 8.0 0.00 0.00 0.00 94 948.0
20260506071534 46 188 3.0 7.0 0.00 0.00 0.00 96 947.8
20260506061532 44 172 2.0 4.0 0.00 0.00 0.00 97 947.7